Weather Roundup
Issued by NWS

Home | Current Version | Previous Version | Text Only | Print | Product List | Glossary On
Versions: 1 2 3 4 5 6 7 8 9 10 11 12 13 14 15 16 17 18 19 20 21 22 23 24 25 26 27 28 29 30 31 32 33 34 35 36 37 38 39 40 41 42 43 44 45 46 47 48 49 50
000
NZUS93 KARX 020210
HRRWXR

CURRENT HOURLY OBSERVATIONS ACROSS
MUCH OF THE UPPER MISSISSIPPI VALLEY
NATIONAL WEATHER SERVICE LA CROSSE WI
900 PM CDT MON SEP 01 2014


...SOUTHEAST MINNESOTA...


CITY           SKY/WX    TMP DP  RH WIND       PRES   REMARKS
ROCHESTER      PTCLDY    62  57  83 SW8       29.85R
ROCHESTER/MAYO FAIR      68  55  62 SW9       29.84R
WINONA         MOCLDY    70  57  64 CALM      29.81R
AUSTIN         PTCLDY    64  57  77 CALM      29.85R
ALBERT LEA     PTCLDY    64  59  82 CALM      29.85R
DODGE CENTER   CLEAR     63  59  88 SW5       29.85R
PRESTON        MOCLDY    63  61  92 CALM      29.85R
OWATONNA       CLEAR     63  57  82 SW6       29.84R
FARIBAULT      CLEAR     64  57  77 CALM      29.83R
$$

...ELSEWHERE IN MINNESOTA...


CITY           SKY/WX    TMP DP  RH WIND       PRES   REMARKS
MINNEAPOLIS    PTCLDY    71  56  58 SW7       29.79R
INTNL FALLS    MOCLDY    56  53  90 CALM      29.71S
DULUTH         PTCLDY    58  51  78 W7        29.75R
RED WING       CLEAR     66  59  77 W3        29.80R
REDWOOD FALLS  PTCLDY    68  58  70 SW8       29.81R
MANKATO        CLEAR     66  55  68 S7        29.82S
WORTHINGTON    CLEAR     63  57  82 W6        29.88R
FAIRMONT       CLEAR     61  55  82 S3        29.85R
$$

...SOUTHWEST WISCONSIN...


CITY           SKY/WX    TMP DP  RH WIND       PRES   REMARKS
LA CROSSE      MOCLDY    71  59  65 W8        29.80R
PRAIRIE DU CHI PTCLDY    66  61  84 CALM      29.81R
BOSCOBEL       PTCLDY    67  63  87 CALM      29.81R
LONE ROCK      PTCLDY    68  62  81 N3        29.81R
PLATTEVILLE    PTCLDY    66  63  90 CALM      29.84R
FORT MC COY    PTCLDY    62  60  93 CALM      29.82R
CAMP DOUGLAS   PTCLDY    60  60 100 CALM      29.80R
VIROQUA        FAIR      65  59  79 W3        29.83R
WIS DELLS      CLEAR     64  60  88 CALM      29.80R
$$

...ELSEWHERE IN WISCONSIN...


CITY           SKY/WX    TMP DP  RH WIND       PRES   REMARKS
MILWAUKEE      PTCLDY    71  65  81 W7        29.80R
MADISON        PTCLDY    68  62  81 CALM      29.81R
GREEN BAY      CLEAR     66  62  87 W8        29.76R
EAU CLAIRE     CLEAR     63  59  87 SW5       29.79R
BLACK RVR FLS  FAIR      61  61 100 CALM      29.80R
MEDFORD        CLEAR     58  55  89 W3        29.80R
WAUSAU         PTCLDY    65  55  70 W6        29.77R
WIS RAPIDS     CLEAR     64  59  83 W6        29.80R
MARSHFIELD     CLEAR     63  58  83 W7        29.80R
RICE LAKE      CLEAR     62  56  80 S3        29.80R
$$

...NORTHEAST IOWA...


CITY           SKY/WX    TMP DP  RH WIND       PRES   REMARKS
WATERLOO       MOCLDY    68  62  81 SW6       29.84R
DUBUQUE        PTCLDY    67  63  87 NW6       29.84R
DECORAH        CLOUDY    66  59  77 CALM      29.83R
MASON CITY     MOCLDY    64  60  87 W3        29.87R
CHARLES CITY   CLOUDY    64  61  88 W3        29.85R
OELWEIN        CLOUDY    66  63  88 SW5       29.86R
$$

...ELSEWHERE IN IOWA...


CITY           SKY/WX    TMP DP  RH WIND       PRES   REMARKS
DES MOINES     CLOUDY    74  63  68 CALM      29.83F
IOWA CITY      PTCLDY    71  65  81 W6        29.86R
FORT DODGE     CLOUDY    64  63  94 CALM      29.87R
MARSHALLTOWN   CLOUDY    69  64  84 SW3       29.86R
CEDAR RAPIDS   PTCLDY    67  65  93 W5        29.85R
$$

...NORTHERN ILLINOIS...


CITY           SKY/WX    TMP DP  RH WIND       PRES   REMARKS
CHICAGO-OHARE  MOCLDY    77  63  61 SW10      29.82R
DUPAGE         CLEAR     74  65  73 SW10      29.83R
CHICAGO-MIDWAY PTCLDY    77  67  71 SW9       29.83R
MOLINE         PTCLDY    72  66  81 W5        29.84R
ROCKFORD       PTCLDY    68  65  90 CALM      29.84R
STERLING       MOCLDY    72  66  83 CALM      29.84R
PEORIA         PTCLDY    74  66  76 SW5       29.86R
$$

NOTE: "FAIR" INDICATES FEW OR NO CLOUDS BELOW 12,000 FEET WITH NO
SIGNIFICANT WEATHER AND/OR OBSTRUCTIONS TO VISIBILITY. WIND
SPEEDS ARE IN MILES-PER-HOUR.



USA.gov is the U.S. government's official web portal to all federal, state and local government web resources and services.